Time,TemperatureF,DewpointF,PressureIn,WindDirection,WindDirectionDegrees,WindSpeedMPH,WindSpeedGustMPH,Humidity,HourlyPrecipIn,Conditions,Clouds,dailyrainin,SoftwareType,DateUTC
2013-03-13 00:02:00,29.0,27.0,29.91,WNW,302,2.0,8.0,92,0.00,,,0.01,,2013-03-13 04:02:00,
2013-03-13 00:13:00,29.0,27.0,29.91,WNW,302,2.0,8.0,92,0.00,,,0.01,,2013-03-13 04:13:00,
2013-03-13 00:22:00,29.0,27.0,29.91,West,280,2.0,11.0,92,0.00,,,0.01,,2013-03-13 04:22:00,
2013-03-13 00:32:00,28.0,26.0,29.91,NW,304,3.0,13.0,92,0.00,,,0.01,,2013-03-13 04:32:00,
2013-03-13 00:42:00,28.0,26.0,29.91,NW,304,3.0,13.0,92,0.00,,,0.01,,2013-03-13 04:42:00,
2013-03-13 00:53:00,28.0,26.0,29.91,North,360,4.0,9.0,92,0.00,,,0.01,,2013-03-13 04:53:00,
2013-03-13 01:02:00,28.0,25.0,29.92,NW,312,0.0,11.0,89,0.00,,,0.01,,2013-03-13 05:02:00,
2013-03-13 01:12:00,28.0,25.0,29.92,NW,312,0.0,11.0,89,0.00,,,0.01,,2013-03-13 05:12:00,
2013-03-13 01:22:00,28.0,25.0,29.92,NW,312,5.0,14.0,88,0.00,,,0.01,,2013-03-13 05:22:00,
2013-03-13 01:32:00,28.0,25.0,29.92,NNW,344,1.0,13.0,89,0.00,,,0.01,,2013-03-13 05:32:00,
2013-03-13 01:42:00,28.0,25.0,29.92,NNW,344,1.0,13.0,89,0.00,,,0.01,,2013-03-13 05:42:00,
2013-03-13 01:52:00,28.0,26.0,29.92,NNW,332,0.0,9.0,91,0.00,,,0.01,,2013-03-13 05:52:00,
2013-03-13 02:02:00,27.0,25.0,29.93,WNW,288,2.0,8.0,92,0.00,,,0.01,,2013-03-13 06:02:00,
2013-03-13 02:12:00,27.0,25.0,29.93,WNW,288,2.0,8.0,92,0.00,,,0.01,,2013-03-13 06:12:00,
2013-03-13 02:23:00,26.0,24.0,29.93,WNW,299,4.0,13.0,93,0.00,,,0.01,,2013-03-13 06:23:00,
2013-03-13 02:32:00,26.0,25.0,29.93,WNW,287,3.0,7.0,94,0.00,,,0.01,,2013-03-13 06:32:00,
2013-03-13 02:42:00,26.0,25.0,29.93,WNW,287,3.0,7.0,94,0.00,,,0.01,,2013-03-13 06:42:00,
2013-03-13 02:52:00,26.0,25.0,29.93,NW,309,3.0,7.0,94,0.00,,,0.01,,2013-03-13 06:52:00,
2013-03-13 03:02:00,27.0,26.0,29.93,WNW,291,3.0,9.0,95,0.00,,,0.01,,2013-03-13 07:02:00,
2013-03-13 03:12:00,27.0,26.0,29.93,WNW,291,3.0,9.0,95,0.00,,,0.01,,2013-03-13 07:12:00,
2013-03-13 03:22:00,26.0,25.0,29.93,WNW,302,1.0,10.0,95,0.00,,,0.01,,2013-03-13 07:22:00,
2013-03-13 03:32:00,26.0,25.0,29.93,NW,311,1.0,6.0,96,0.00,,,0.01,,2013-03-13 07:32:00,
2013-03-13 03:42:00,26.0,25.0,29.93,NW,311,1.0,6.0,96,0.00,,,0.01,,2013-03-13 07:42:00,
2013-03-13 03:53:00,26.0,25.0,29.93,NW,308,0.0,9.0,95,0.00,,,0.01,,2013-03-13 07:53:00,
2013-03-13 04:03:00,26.0,25.0,29.93,NW,311,2.0,8.0,95,0.00,,,0.01,,2013-03-13 08:03:00,
2013-03-13 04:12:00,26.0,25.0,29.93,NW,311,2.0,8.0,95,0.00,,,0.01,,2013-03-13 08:12:00,
2013-03-13 04:22:00,26.0,25.0,29.93,WNW,299,3.0,11.0,95,0.00,,,0.01,,2013-03-13 08:22:00,
2013-03-13 04:32:00,26.0,25.0,29.93,NW,318,1.0,8.0,95,0.00,,,0.01,,2013-03-13 08:32:00,
2013-03-13 04:42:00,26.0,25.0,29.93,NW,318,1.0,8.0,95,0.00,,,0.01,,2013-03-13 08:42:00,
2013-03-13 04:53:00,26.0,25.0,29.93,WNW,287,2.0,8.0,95,0.00,,,0.01,,2013-03-13 08:53:00,
2013-03-13 05:02:00,26.0,25.0,29.93,West,281,7.0,13.0,95,0.00,,,0.01,,2013-03-13 09:02:00,
2013-03-13 05:12:00,26.0,25.0,29.93,West,281,7.0,13.0,95,0.00,,,0.01,,2013-03-13 09:12:00,
2013-03-13 05:22:00,26.0,25.0,29.93,NNE,25,0.0,15.0,94,0.00,,,0.01,,2013-03-13 09:22:00,
2013-03-13 05:32:00,26.0,24.0,29.94,NW,311,2.0,11.0,93,0.00,,,0.01,,2013-03-13 09:32:00,
2013-03-13 05:42:00,26.0,24.0,29.94,NW,311,2.0,11.0,93,0.00,,,0.01,,2013-03-13 09:42:00,
2013-03-13 05:52:00,26.0,24.0,29.94,WNW,292,1.0,11.0,93,0.00,,,0.01,,2013-03-13 09:52:00,
2013-03-13 06:02:00,26.0,24.0,29.95,North,352,1.0,8.0,93,0.00,,,0.01,,2013-03-13 10:02:00,
2013-03-13 06:12:00,26.0,24.0,29.95,North,352,1.0,8.0,93,0.00,,,0.01,,2013-03-13 10:12:00,
2013-03-13 06:22:00,26.0,24.0,29.95,NNW,344,2.0,8.0,93,0.00,,,0.01,,2013-03-13 10:22:00,
2013-03-13 06:32:00,26.0,24.0,29.96,North,359,2.0,10.0,93,0.00,,,0.01,,2013-03-13 10:32:00,
2013-03-13 06:42:00,26.0,24.0,29.96,North,359,2.0,10.0,93,0.00,,,0.01,,2013-03-13 10:42:00,
2013-03-13 06:52:00,25.0,24.0,29.96,WNW,289,0.0,7.0,94,0.00,,,0.01,,2013-03-13 10:52:00,
2013-03-13 07:02:00,25.0,23.0,29.97,West,277,3.0,17.0,92,0.00,,,0.01,,2013-03-13 11:02:00,
2013-03-13 07:12:00,25.0,23.0,29.97,West,277,3.0,17.0,92,0.00,,,0.01,,2013-03-13 11:12:00,
2013-03-13 07:22:00,25.0,22.0,29.97,WNW,294,3.0,10.0,89,0.00,,,0.01,,2013-03-13 11:22:00,
2013-03-13 07:32:00,24.0,21.0,29.98,ENE,61,2.0,13.0,88,0.00,,,0.01,,2013-03-13 11:32:00,
2013-03-13 07:42:00,24.0,21.0,29.98,ENE,61,2.0,13.0,88,0.00,,,0.01,,2013-03-13 11:42:00,
2013-03-13 07:52:00,24.0,20.0,29.99,North,354,1.0,8.0,86,0.00,,,0.01,,2013-03-13 11:52:00,
2013-03-13 08:02:00,24.0,20.0,30.00,North,360,0.0,10.0,85,0.00,,,0.01,,2013-03-13 12:02:00,
2013-03-13 08:12:00,24.0,20.0,30.00,North,360,0.0,10.0,85,0.00,,,0.01,,2013-03-13 12:12:00,
2013-03-13 08:22:00,24.0,20.0,30.01,NE,35,0.0,7.0,86,0.00,,,0.01,,2013-03-13 12:22:00,
2013-03-13 08:32:00,24.0,21.0,30.01,West,277,2.0,10.0,87,0.00,,,0.01,,2013-03-13 12:32:00,
2013-03-13 08:42:00,24.0,21.0,30.01,West,277,2.0,10.0,87,0.00,,,0.01,,2013-03-13 12:42:00,
2013-03-13 08:53:00,24.0,21.0,30.02,WNW,299,3.0,8.0,87,0.00,,,0.01,,2013-03-13 12:53:00,
2013-03-13 09:02:00,24.0,21.0,30.03,North,360,1.0,11.0,87,0.00,,,0.01,,2013-03-13 13:02:00,
2013-03-13 09:11:00,24.0,21.0,30.03,North,360,1.0,11.0,87,0.00,,,0.01,,2013-03-13 13:11:00,
2013-03-13 09:22:00,24.0,20.0,30.03,WNW,292,1.0,13.0,85,0.00,,,0.01,,2013-03-13 13:22:00,
2013-03-13 09:32:00,24.0,20.0,30.04,NNW,336,2.0,10.0,86,0.00,,,0.01,,2013-03-13 13:32:00,
2013-03-13 09:42:00,24.0,20.0,30.04,NNW,336,2.0,10.0,86,0.00,,,0.01,,2013-03-13 13:42:00,
2013-03-13 09:52:00,24.0,21.0,30.05,West,277,1.0,13.0,87,0.00,,,0.01,,2013-03-13 13:52:00,
2013-03-13 10:02:00,24.0,21.0,30.05,NW,313,3.0,9.0,89,0.00,,,0.01,,2013-03-13 14:02:00,
2013-03-13 10:12:00,24.0,21.0,30.05,NW,313,3.0,9.0,89,0.00,,,0.01,,2013-03-13 14:12:00,
2013-03-13 10:21:00,24.0,21.0,30.06,NNE,24,4.0,9.0,89,0.00,,,0.01,,2013-03-13 14:21:00,
2013-03-13 10:33:00,24.0,22.0,30.06,WNW,298,2.0,7.0,90,0.00,,,0.01,,2013-03-13 14:33:00,
2013-03-13 10:42:00,24.0,22.0,30.06,WNW,298,2.0,7.0,90,0.00,,,0.01,,2013-03-13 14:42:00,
2013-03-13 10:52:00,25.0,22.0,30.07,WNW,292,0.0,10.0,89,0.00,,,0.01,,2013-03-13 14:52:00,
2013-03-13 11:03:00,25.0,22.0,30.08,West,267,0.0,8.0,88,0.00,,,0.01,,2013-03-13 15:03:00,
2013-03-13 11:12:00,25.0,22.0,30.08,West,267,0.0,8.0,88,0.00,,,0.01,,2013-03-13 15:12:00,
2013-03-13 11:22:00,25.0,22.0,30.08,WNW,289,1.0,8.0,87,0.00,,,0.01,,2013-03-13 15:22:00,
2013-03-13 11:32:00,25.0,22.0,30.09,West,280,2.0,13.0,87,0.00,,,0.01,,2013-03-13 15:32:00,
2013-03-13 11:42:00,25.0,22.0,30.09,West,280,2.0,13.0,87,0.00,,,0.01,,2013-03-13 15:42:00,
2013-03-13 11:52:00,26.0,23.0,30.09,NW,304,1.0,9.0,88,0.00,,,0.01,,2013-03-13 15:52:00,
2013-03-13 12:02:00,25.0,21.0,30.10,WNW,299,2.0,10.0,86,0.00,,,0.01,,2013-03-13 16:02:00,
2013-03-13 12:12:00,25.0,21.0,30.10,WNW,299,2.0,10.0,86,0.00,,,0.01,,2013-03-13 16:12:00,
2013-03-13 12:22:00,25.0,21.0,30.11,North,4,4.0,16.0,84,0.00,,,0.01,,2013-03-13 16:22:00,
2013-03-13 12:32:00,25.0,21.0,30.12,NW,304,3.0,14.0,86,0.00,,,0.01,,2013-03-13 16:32:00,
2013-03-13 12:42:00,25.0,21.0,30.12,NW,304,3.0,14.0,86,0.00,,,0.01,,2013-03-13 16:42:00,
2013-03-13 12:52:00,25.0,21.0,30.12,West,281,2.0,13.0,86,0.00,,,0.01,,2013-03-13 16:52:00,
2013-03-13 13:02:00,25.0,20.0,30.13,WNW,288,4.0,11.0,82,0.00,,,0.01,,2013-03-13 17:02:00,
2013-03-13 13:12:00,25.0,20.0,30.13,WNW,288,4.0,11.0,82,0.00,,,0.01,,2013-03-13 17:12:00,
2013-03-13 13:22:00,25.0,20.0,30.13,WNW,295,3.0,13.0,80,0.00,,,0.01,,2013-03-13 17:22:00,
2013-03-13 13:32:00,26.0,20.0,30.14,NNW,332,0.0,15.0,78,0.00,,,0.01,,2013-03-13 17:32:00,
2013-03-13 13:42:00,26.0,20.0,30.14,NNW,332,0.0,15.0,78,0.00,,,0.01,,2013-03-13 17:42:00,
2013-03-13 13:53:00,26.0,20.0,30.14,NNW,337,0.0,13.0,77,0.01,,,0.02,,2013-03-13 17:53:00,
2013-03-13 14:02:00,26.0,20.0,30.15,WNW,285,2.0,15.0,78,0.01,,,0.02,,2013-03-13 18:02:00,
2013-03-13 14:12:00,26.0,20.0,30.15,WNW,285,2.0,15.0,78,0.01,,,0.02,,2013-03-13 18:12:00,
2013-03-13 14:22:00,26.0,21.0,30.15,WNW,282,2.0,13.0,80,0.01,,,0.02,,2013-03-13 18:22:00,
2013-03-13 14:33:00,26.0,21.0,30.16,North,349,3.0,13.0,82,0.01,,,0.02,,2013-03-13 18:33:00,
2013-03-13 14:42:00,26.0,21.0,30.16,North,349,3.0,13.0,82,0.01,,,0.02,,2013-03-13 18:42:00,
2013-03-13 14:52:00,28.0,22.0,30.16,North,359,2.0,8.0,78,0.01,,,0.02,,2013-03-13 18:52:00,
2013-03-13 15:02:00,28.0,20.0,30.16,WNW,294,2.0,14.0,72,0.01,,,0.02,,2013-03-13 19:02:00,
2013-03-13 15:12:00,28.0,20.0,30.16,WNW,294,2.0,14.0,72,0.01,,,0.02,,2013-03-13 19:12:00,
2013-03-13 15:22:00,28.0,19.0,30.16,NW,312,1.0,18.0,69,0.02,,,0.03,,2013-03-13 19:22:00,
2013-03-13 15:32:00,28.0,18.0,30.16,WNW,301,3.0,13.0,65,0.02,,,0.03,,2013-03-13 19:32:00,
2013-03-13 15:43:00,28.0,18.0,30.16,WNW,301,3.0,13.0,65,0.02,,,0.03,,2013-03-13 19:43:00,
2013-03-13 15:53:00,28.0,16.0,30.17,NW,318,1.0,17.0,61,0.02,,,0.04,,2013-03-13 19:53:00,
2013-03-13 16:02:00,29.0,16.0,30.17,WNW,287,1.0,21.0,59,0.02,,,0.04,,2013-03-13 20:02:00,
2013-03-13 16:12:00,29.0,16.0,30.17,WNW,287,1.0,21.0,59,0.02,,,0.04,,2013-03-13 20:12:00,
2013-03-13 16:22:00,29.0,16.0,30.18,NNW,346,2.0,11.0,59,0.01,,,0.04,,2013-03-13 20:22:00,
2013-03-13 16:32:00,30.0,17.0,30.19,North,350,3.0,14.0,57,0.02,,,0.05,,2013-03-13 20:32:00,
2013-03-13 16:42:00,30.0,17.0,30.19,North,350,3.0,14.0,57,0.02,,,0.05,,2013-03-13 20:42:00,
2013-03-13 16:52:00,29.0,16.0,30.19,WNW,299,3.0,11.0,59,0.02,,,0.06,,2013-03-13 20:52:00,
2013-03-13 17:02:00,29.0,15.0,30.19,West,268,4.0,10.0,56,0.02,,,0.06,,2013-03-13 21:02:00,
2013-03-13 17:12:00,29.0,15.0,30.19,West,268,4.0,10.0,56,0.02,,,0.06,,2013-03-13 21:12:00,
2013-03-13 17:22:00,29.0,15.0,30.19,North,352,4.0,15.0,56,0.02,,,0.06,,2013-03-13 21:22:00,
2013-03-13 17:33:00,30.0,15.0,30.20,NNE,25,2.0,10.0,54,0.02,,,0.07,,2013-03-13 21:33:00,
2013-03-13 17:42:00,30.0,15.0,30.20,NNE,25,2.0,10.0,54,0.02,,,0.07,,2013-03-13 21:42:00,
2013-03-13 17:52:00,30.0,15.0,30.21,NNE,13,4.0,11.0,52,0.01,,,0.07,,2013-03-13 21:52:00,
2013-03-13 18:02:00,29.0,14.0,30.21,NW,311,2.0,10.0,53,0.01,,,0.07,,2013-03-13 22:02:00,
2013-03-13 18:12:00,29.0,14.0,30.21,NW,311,2.0,10.0,53,0.01,,,0.07,,2013-03-13 22:12:00,
2013-03-13 18:22:00,30.0,15.0,30.21,North,360,1.0,13.0,52,0.02,,,0.08,,2013-03-13 22:22:00,
2013-03-13 18:32:00,31.0,15.0,30.21,WNW,299,2.0,13.0,52,0.02,,,0.09,,2013-03-13 22:32:00,
2013-03-13 18:42:00,31.0,15.0,30.21,WNW,299,2.0,13.0,52,0.02,,,0.09,,2013-03-13 22:42:00,
2013-03-13 18:52:00,30.0,15.0,30.22,NNW,328,0.0,7.0,52,0.02,,,0.09,,2013-03-13 22:52:00,
2013-03-13 19:02:00,29.0,14.0,30.22,NNE,20,1.0,13.0,53,0.02,,,0.09,,2013-03-13 23:02:00,
2013-03-13 19:12:00,29.0,14.0,30.22,NNE,20,1.0,13.0,53,0.02,,,0.09,,2013-03-13 23:12:00,
2013-03-13 19:22:00,29.0,14.0,30.22,NW,313,2.0,8.0,52,0.01,,,0.09,,2013-03-13 23:22:00,
2013-03-13 19:32:00,28.0,13.0,30.22,North,360,1.0,8.0,53,0.00,,,0.09,,2013-03-13 23:32:00,
2013-03-13 19:42:00,28.0,13.0,30.22,North,360,1.0,8.0,53,0.00,,,0.09,,2013-03-13 23:42:00,
2013-03-13 19:52:00,27.0,12.0,30.23,NNW,344,1.0,7.0,53,0.00,,,0.09,,2013-03-13 23:52:00,
2013-03-13 20:02:00,27.0,13.0,30.23,WNW,287,2.0,8.0,54,0.00,,,0.09,,2013-03-14 00:02:00,
2013-03-13 20:12:00,27.0,13.0,30.23,WNW,287,2.0,8.0,54,0.00,,,0.09,,2013-03-14 00:12:00,
2013-03-13 20:22:00,26.0,12.0,30.23,NW,306,1.0,4.0,55,0.00,,,0.09,,2013-03-14 00:22:00,
2013-03-13 20:32:00,26.0,12.0,30.23,NW,320,0.0,6.0,56,0.00,,,0.09,,2013-03-14 00:32:00,
2013-03-13 20:42:00,26.0,12.0,30.23,NW,320,0.0,6.0,56,0.00,,,0.09,,2013-03-14 00:42:00,
2013-03-13 20:52:00,26.0,12.0,30.23,NNW,342,0.0,4.0,55,0.00,,,0.09,,2013-03-14 00:52:00,
2013-03-13 21:02:00,25.0,12.0,30.24,NNW,336,0.0,4.0,56,0.00,,,0.09,,2013-03-14 01:02:00,
2013-03-13 21:12:00,25.0,12.0,30.24,NNW,336,0.0,4.0,56,0.00,,,0.09,,2013-03-14 01:12:00,
2013-03-13 21:22:00,25.0,12.0,30.24,NNW,336,1.0,4.0,56,0.00,,,0.09,,2013-03-14 01:22:00,
2013-03-13 21:32:00,24.0,12.0,30.24,NNW,336,0.0,1.0,59,0.00,,,0.09,,2013-03-14 01:32:00,
2013-03-13 21:42:00,24.0,12.0,30.24,NNW,336,0.0,1.0,59,0.00,,,0.09,,2013-03-14 01:42:00,
2013-03-13 21:53:00,22.0,11.0,30.24,NNW,336,0.0,0.0,62,0.00,,,0.09,,2013-03-14 01:53:00,
2013-03-13 22:02:00,21.0,11.0,30.24,NNW,336,0.0,1.0,64,0.00,,,0.09,,2013-03-14 02:02:00,
2013-03-13 22:12:00,21.0,11.0,30.24,NNW,336,0.0,1.0,64,0.00,,,0.09,,2013-03-14 02:12:00,
2013-03-13 22:22:00,21.0,11.0,30.24,NNW,336,0.0,1.0,66,0.00,,,0.09,,2013-03-14 02:22:00,
2013-03-13 22:32:00,20.0,11.0,30.24,NNW,336,0.0,0.0,68,0.00,,,0.09,,2013-03-14 02:32:00,
2013-03-13 22:42:00,20.0,11.0,30.24,NNW,336,0.0,0.0,68,0.00,,,0.09,,2013-03-14 02:42:00,
2013-03-13 22:52:00,20.0,11.0,30.24,NNW,336,0.0,0.0,68,0.00,,,0.09,,2013-03-14 02:52:00,
2013-03-13 23:01:00,20.0,11.0,30.24,NNW,336,0.0,0.0,69,0.00,,,0.09,,2013-03-14 03:01:00,
2013-03-13 23:12:00,20.0,11.0,30.24,NNW,336,0.0,0.0,69,0.00,,,0.09,,2013-03-14 03:12:00,
2013-03-13 23:23:00,20.0,11.0,30.24,NNW,336,0.0,0.0,69,0.00,,,0.09,,2013-03-14 03:23:00,
2013-03-13 23:32:00,19.0,11.0,30.24,NNW,336,0.0,0.0,69,0.00,,,0.09,,2013-03-14 03:32:00,
2013-03-13 23:42:00,19.0,11.0,30.24,NNW,336,0.0,0.0,69,0.00,,,0.09,,2013-03-14 03:42:00,
2013-03-13 23:52:00,19.0,11.0,30.25,NNW,336,0.0,0.0,70,0.00,,,0.09,,2013-03-14 03:52:00,